When you browse on this site, cookies collect data to enhance your experience and personalize the content and advertising you see.
Visit our Privacy Policy to learn more. By continuing to use the site, you agree to this use of cookies and data.
  • In Deutschland
  • Länderverzeichnis
  • Für 7 Tage
  • Wassertemperatur
  • Satellitenkarten
  • Wetterkarte
  • Widgets
  • user-avatar
    Anmelden

    Stündliche Wetter Trebinje

    Heute, 16 Januar, Mittwoch

    Zeit Temperatur Niederschläge Wind Luftdruck Luftfeuchtigkeit
    00:00 -4°C° 0 mm 2 m/S 727 mmHg 70%
    01:00 -4°C° 0 mm 2 m/S 727 mmHg 69%
    02:00 -4°C° 0 mm 2 m/S 727 mmHg 66%
    03:00 -4°C° 0 mm 2 m/S 727 mmHg 64%
    04:00 -1°C° 0 mm 1 m/S 727 mmHg 62%
    05:00 -1°C° 0 mm 1 m/S 727 mmHg 61%
    06:00 -1°C° 0 mm 1 m/S 727 mmHg 60%
    07:00 -3°C° 0 mm 2 m/S 726 mmHg 59%
    08:00 +1°C° 0 mm 1 m/S 727 mmHg 60%
    09:00 +3°C° 0 mm 1 m/S 727 mmHg 62%
    10:00 +4°C° 0 mm 1 m/S 727 mmHg 64%
    11:00 +5°C° 0 mm 1 m/S 727 mmHg 66%
    12:00 +5°C° 0 mm 1 m/S 727 mmHg 69%
    13:00 +6°C° 0 mm 1 m/S 726 mmHg 72%
    14:00 +5°C° 0 mm 1 m/S 726 mmHg 76%
    15:00 +4°C° 0 mm 1 m/S 726 mmHg 80%
    16:00 +3°C° 0 mm 1 m/S 726 mmHg 84%
    17:00 +3°C° 0 mm 1 m/S 726 mmHg 85%
    18:00 +2°C° 0 mm 1 m/S 727 mmHg 86%
    19:00 -1°C° 0 mm 2 m/S 727 mmHg 88%
    20:00 -1°C° 0 mm 2 m/S 727 mmHg 87%
    21:00 -1°C° 0 mm 2 m/S 727 mmHg 87%
    22:00 -1°C° 0 mm 2 m/S 727 mmHg 86%
    23:00 -1°C° 0 mm 2 m/S 727 mmHg 86%

    Morgen, 17 Januar, Donnerstag

    Zeit Temperatur Niederschläge Wind Luftdruck Luftfeuchtigkeit
    00:00 -1°C° 0 mm 2 m/S 727 mmHg 86%
    01:00 +1°C° 0 mm 2 m/S 727 mmHg 86%
    02:00 +1°C° 0 mm 2 m/S 727 mmHg 86%
    03:00 +1°C° 0 mm 2 m/S 726 mmHg 86%
    04:00 +1°C° 0 mm 2 m/S 726 mmHg 86%
    05:00 +1°C° 0 mm 2 m/S 726 mmHg 85%
    06:00 +1°C° 0 mm 2 m/S 726 mmHg 84%
    07:00 +1°C° 0 mm 2 m/S 726 mmHg 83%
    08:00 +2°C° 0 mm 2 m/S 726 mmHg 82%
    09:00 +4°C° 0 mm 2 m/S 726 mmHg 81%
    10:00 +5°C° 0 mm 2 m/S 726 mmHg 80%
    11:00 +5°C° 0 mm 3 m/S 726 mmHg 82%
    12:00 +5°C° 0 mm 3 m/S 725 mmHg 83%
    13:00 +7°C° 0 mm 3 m/S 725 mmHg 84%
    14:00 +5°C° 0 mm 3 m/S 725 mmHg 86%
    15:00 +5°C° 0 mm 3 m/S 725 mmHg 88%
    16:00 +4°C° 0 mm 3 m/S 725 mmHg 89%
    17:00 +3°C° 0 mm 3 m/S 725 mmHg 89%
    18:00 +3°C° 0 mm 3 m/S 725 mmHg 88%
    19:00 +2°C° 0 mm 3 m/S 724 mmHg 87%
    20:00 +2°C° 0 mm 3 m/S 724 mmHg 86%
    21:00 +3°C° 0 mm 3 m/S 724 mmHg 85%
    22:00 +3°C° 0 mm 3 m/S 724 mmHg 83%
    23:00 +3°C° 0 mm 3 m/S 724 mmHg 84%

    übermorgen, 18 Januar, Freitag

    Zeit Temperatur Niederschläge Wind Luftdruck Luftfeuchtigkeit
    00:00 +3°C° 0 mm 3 m/S 724 mmHg 85%
    01:00 +4°C° 0 mm 4 m/S 724 mmHg 85%
    02:00 +3°C° 0 mm 4 m/S 723 mmHg 87%
    03:00 +3°C° 0 mm 3 m/S 723 mmHg 88%
    04:00 +3°C° 0 mm 3 m/S 722 mmHg 89%
    05:00 +3°C° 0 mm 3 m/S 722 mmHg 89%
    06:00 +3°C° 0 mm 3 m/S 722 mmHg 88%
    07:00 +3°C° 0 mm 3 m/S 722 mmHg 88%
    08:00 +4°C° 0 mm 4 m/S 722 mmHg 87%
    09:00 +5°C° 0 mm 4 m/S 723 mmHg 85%
    10:00 +6°C° 0 mm 4 m/S 723 mmHg 84%
    11:00 +6°C° 0.2 mm 4 m/S 723 mmHg 85%
    12:00 +6°C° 0.2 mm 4 m/S 723 mmHg 85%
    13:00 +6°C° 0.2 mm 4 m/S 722 mmHg 86%
    14:00 +6°C° 0.3 mm 4 m/S 723 mmHg 87%
    15:00 +6°C° 0.3 mm 4 m/S 723 mmHg 88%
    16:00 +5°C° 0.3 mm 3 m/S 723 mmHg 89%
    17:00 +5°C° 0.1 mm 3 m/S 723 mmHg 88%
    18:00 +4°C° 0.1 mm 3 m/S 723 mmHg 88%
    19:00 +4°C° 0.1 mm 3 m/S 723 mmHg 87%
    20:00 +4°C° 0.2 mm 3 m/S 724 mmHg 87%
    21:00 +4°C° 0.2 mm 3 m/S 724 mmHg 87%
    22:00 +4°C° 0.2 mm 3 m/S 724 mmHg 87%
    23:00 +4°C° 0.1 mm 3 m/S 724 mmHg 88%

    19 Januar, Samstag

    Zeit Temperatur Niederschläge Wind Luftdruck Luftfeuchtigkeit
    00:00 +4°C° 0.1 mm 3 m/S 724 mmHg 88%
    01:00 +4°C° 0.1 mm 3 m/S 724 mmHg 89%
    02:00 +4°C° 0.1 mm 3 m/S 724 mmHg 90%
    03:00 +4°C° 0.1 mm 3 m/S 723 mmHg 90%
    04:00 +4°C° 0.1 mm 3 m/S 723 mmHg 91%
    05:00 +4°C° 0.2 mm 3 m/S 723 mmHg 91%
    06:00 +4°C° 0.2 mm 3 m/S 723 mmHg 92%
    07:00 +4°C° 0.2 mm 3 m/S 723 mmHg 92%
    08:00 +5°C° 0.5 mm 4 m/S 723 mmHg 92%
    09:00 +5°C° 0.5 mm 4 m/S 723 mmHg 92%
    10:00 +6°C° 0.5 mm 4 m/S 722 mmHg 92%
    11:00 +6°C° 0.9 mm 4 m/S 722 mmHg 92%
    12:00 +6°C° 0.9 mm 4 m/S 722 mmHg 93%
    13:00 +5°C° 0.9 mm 4 m/S 721 mmHg 93%
    14:00 +5°C° 0.9 mm 4 m/S 721 mmHg 93%
    15:00 +5°C° 0.9 mm 4 m/S 721 mmHg 93%
    16:00 +5°C° 0.9 mm 4 m/S 720 mmHg 93%
    17:00 +5°C° 0.8 mm 4 m/S 721 mmHg 94%
    18:00 +5°C° 0.8 mm 4 m/S 721 mmHg 94%
    19:00 +5°C° 0.8 mm 4 m/S 721 mmHg 95%
    20:00 +5°C° 1.3 mm 4 m/S 721 mmHg 95%
    21:00 +5°C° 1.3 mm 4 m/S 721 mmHg 95%
    22:00 +5°C° 1.3 mm 4 m/S 721 mmHg 95%
    23:00 +5°C° 1.4 mm 3 m/S 721 mmHg 95%

    20 Januar, Sonntag

    Zeit Temperatur Niederschläge Wind Luftdruck Luftfeuchtigkeit
    00:00 +5°C° 1.4 mm 3 m/S 721 mmHg 95%
    01:00 +5°C° 1.4 mm 3 m/S 721 mmHg 95%
    02:00 +6°C° 0.7 mm 2 m/S 720 mmHg 95%
    03:00 +6°C° 0.7 mm 2 m/S 720 mmHg 95%
    04:00 +6°C° 0.7 mm 2 m/S 720 mmHg 96%
    05:00 +7°C° 0.9 mm 1 m/S 720 mmHg 95%
    06:00 +7°C° 0.9 mm 1 m/S 720 mmHg 95%
    07:00 +7°C° 0.9 mm 1 m/S 721 mmHg 95%
    08:00 +7°C° 0.1 mm 1 m/S 721 mmHg 93%
    09:00 +7°C° 0.1 mm 2 m/S 721 mmHg 91%
    10:00 +7°C° 0.1 mm 2 m/S 721 mmHg 89%
    11:00 +7°C° 0.2 mm 2 m/S 721 mmHg 88%
    12:00 +8°C° 0.2 mm 2 m/S 721 mmHg 87%
    13:00 +8°C° 0.2 mm 2 m/S 721 mmHg 85%
    14:00 +7°C° 0.3 mm 2 m/S 721 mmHg 87%
    15:00 +7°C° 0.3 mm 2 m/S 721 mmHg 88%
    16:00 +8°C° 0.3 mm 1 m/S 722 mmHg 90%
    17:00 +7°C° 0.1 mm 1 m/S 722 mmHg 90%
    18:00 +5°C° 0.1 mm 2 m/S 722 mmHg 90%
    19:00 +5°C° 0.1 mm 2 m/S 722 mmHg 90%
    20:00 +4°C° 0 mm 2 m/S 723 mmHg 89%
    21:00 +4°C° 0 mm 2 m/S 723 mmHg 89%
    22:00 +4°C° 0 mm 2 m/S 723 mmHg 88%
    23:00 +4°C° 0 mm 2 m/S 723 mmHg 87%

    21 Januar, Montag

    Zeit Temperatur Niederschläge Wind Luftdruck Luftfeuchtigkeit
    00:00 +4°C° 0 mm 2 m/S 723 mmHg 87%
    01:00 +3°C° 0 mm 2 m/S 723 mmHg 86%
    02:00 +4°C° 0.1 mm 2 m/S 723 mmHg 86%
    03:00 +4°C° 0.1 mm 2 m/S 723 mmHg 85%
    04:00 +4°C° 0.1 mm 2 m/S 723 mmHg 84%
    05:00 +3°C° 0.5 mm 3 m/S 723 mmHg 84%
    06:00 +4°C° 0.5 mm 3 m/S 723 mmHg 84%
    07:00 +4°C° 0.5 mm 3 m/S 723 mmHg 84%
    08:00 +4°C° 0.3 mm 3 m/S 723 mmHg 83%
    09:00 +5°C° 0.3 mm 3 m/S 723 mmHg 82%
    10:00 +5°C° 0.3 mm 4 m/S 723 mmHg 82%
    11:00 +6°C° 0.2 mm 4 m/S 723 mmHg 82%
    12:00 +6°C° 0.2 mm 4 m/S 723 mmHg 82%
    13:00 +7°C° 0.2 mm 4 m/S 722 mmHg 83%
    14:00 +6°C° 0.1 mm 4 m/S 722 mmHg 83%
    15:00 +6°C° 0.1 mm 4 m/S 722 mmHg 84%
    16:00 +7°C° 0.1 mm 3 m/S 722 mmHg 85%
    17:00 +5°C° 0.8 mm 4 m/S 722 mmHg 85%
    18:00 +5°C° 0.8 mm 4 m/S 721 mmHg 86%
    19:00 +5°C° 0.8 mm 4 m/S 721 mmHg 86%
    20:00 +5°C° 1.2 mm 4 m/S 721 mmHg 86%
    21:00 +5°C° 1.2 mm 4 m/S 721 mmHg 86%
    22:00 +5°C° 1.2 mm 4 m/S 721 mmHg 86%
    23:00 +5°C° 0.8 mm 4 m/S 720 mmHg 85%
    Mehr zeigen